Regional Weather Roundup
Issued by NWS

Home | Current Version | Previous Version | Text Only | Print | Product List | Glossary On
Versions: 1 2 3 4 5 6 7 8 9 10 11 12 13 14 15 16 17 18 19 20 21 22 23 24 25 26 27 28 29 30 31 32 33 34 35 36 37 38 39 40 41 42 43 44 45 46 47 48 49 50
000
ASUS44 KFWD 300603
RWRTX
NORTH TEXAS HOURLY WEATHER ROUNDUP
NATIONAL WEATHER SERVICE FORT WORTH TX
100 AM CDT SAT AUG 30 2014

NOTE: "FAIR" INDICATES FEW OR NO CLOUDS BELOW 12,000 FEET WITH NO
SIGNIFICANT WEATHER AND/OR OBSTRUCTIONS TO VISIBILITY.

TXZ118-119-300700-
DALLAS/FORT WORTH METROPLEX

CITY           SKY/WX    TMP DP  RH WIND       PRES   REMARKS
DFW AIRPORT    FAIR      81  71  71 S8        29.92S
6HR MIN TEMP:  80; 6HR MAX TEMP:  86;

DALLAS LOVE    FAIR      81  71  71 S9        29.92S
6HR MIN TEMP:  78; 6HR MAX TEMP:  85;

FTW MEACHAM    FAIR      80  70  71 S9        29.92S
6HR MIN TEMP:  80; 6HR MAX TEMP:  91;

DAL-EXECUTIVE  FAIR      80  71  74 S5        29.92S
6HR MIN TEMP:  80; 6HR MAX TEMP:  87;

FTW-ALLIANCE   FAIR      78  70  76 S6        29.92S
6HR MIN TEMP:  76; 6HR MAX TEMP:  87;

FTW-NAS-JRB    FAIR      82  69  64 SE7       29.96S
6HR MIN TEMP:  82; 6HR MAX TEMP:  93;

FTW-SPINKS     FAIR      77  69  76 S7        29.94S
6HR MIN TEMP:  77; 6HR MAX TEMP:  86;

ARLINGTON      FAIR      79  70  74 S6        29.93S
6HR MIN TEMP:  79; 6HR MAX TEMP:  87;

GRAND PRAIRIE  FAIR      80  69  68 SE6       29.94R
6HR MIN TEMP:  80; 6HR MAX TEMP:  86;

ADDISON        FAIR      82  69  66 S6        29.94S
6HR MIN TEMP:  82; 6HR MAX TEMP:  85;

MESQUITE       FAIR      76  71  85 SE3       29.94R
6HR MIN TEMP:  76; 6HR MAX TEMP:  82;

LANCASTER      FAIR      74  71  91 CALM      29.94R
6HR MIN TEMP:  73; 6HR MAX TEMP:  78;

$$

TXZ091>094-102>105-117-120-121-131>134-300700-
NORTH CENTRAL TEXAS

CITY           SKY/WX    TMP DP  RH WIND       PRES   REMARKS
SHRMAN/DENISON MOCLDY    78  69  72 SE8       29.94S
6HR MIN TEMP:  78; 6HR MAX TEMP:  87;

GAINESVILLE    CLOUDY    75  72  89 CALM      29.95S
6HR MIN TEMP:  74; 6HR MAX TEMP:  83;

BOWIE          FAIR      73  71  92 CALM      29.93S
6HR MIN TEMP:  72; 6HR MAX TEMP:  83;

BRIDGEPORT     FAIR      77  69  77 S6        29.94F
6HR MIN TEMP:  75; 6HR MAX TEMP:  83;

DECATUR        FAIR      77  69  75 S7        29.94S
6HR MIN TEMP:  76; 6HR MAX TEMP:  81;

DENTON         FAIR      77  71  82 S8        29.92F
6HR MIN TEMP:  76; 6HR MAX TEMP:  87;

MCKINNEY       FAIR      76  72  87 S9        29.93S
6HR MIN TEMP:  76; 6HR MAX TEMP:  84;

GREENVILLE     FAIR      77  68  73 S8        29.94S
ROCKWALL       FAIR      76  72  86 S3        29.93R
6HR MIN TEMP:  76; 6HR MAX TEMP:  78;

TERRELL        FAIR      78  71  79 SE7       29.94S
6HR MIN TEMP:  78; 6HR MAX TEMP:  84;

WAXAHACHIE     FAIR      75  69  80 S3        29.95S
6HR MIN TEMP:  75; 6HR MAX TEMP:  85;

CLEBURNE       FAIR      77  73  88 S7        29.95S
GRANBURY       FAIR      79  70  73 SE5       29.94F
6HR MIN TEMP:  79; 6HR MAX TEMP:  90;

$$

TXZ083>090-098>101-113>116-127>130-139>142-154-155-300700-
WESTERN NORTH TEXAS

CITY           SKY/WX    TMP DP  RH WIND       PRES   REMARKS
WICHITA FALLS  FAIR      74  69  85 CALM      29.93S
6HR MIN TEMP:  73; 6HR MAX TEMP:  86;

WF-KICKAPOO    FAIR      73  69  85 CALM      29.94S
6HR MIN TEMP:  73; 6HR MAX TEMP:  87;

VERNON         FAIR      75  69  82 SW7       29.94F
6HR MIN TEMP:  68; 6HR MAX TEMP: 100;

ABILENE        FAIR      75  69  81 S8        29.96F
6HR MIN TEMP:  75; 6HR MAX TEMP:  84; 6HR PCP:  0.02;

ABILENE-DYESS  FAIR      76  69  79 SE6       29.96F
6HR MIN TEMP:  75; 6HR MAX TEMP:  78;

BRECKENRIDGE   FAIR      75  72  91 S5        29.94S
6HR MIN TEMP:  75; 6HR MAX TEMP:  79;

GRAHAM         FAIR      74  68  80 CALM      29.92F
6HR MIN TEMP:  74; 6HR MAX TEMP:  84;

MINERAL WELLS  FAIR      77  70  79 S6        29.92F
6HR MIN TEMP:  76; 6HR MAX TEMP:  85;

STEPHENVILLE   FAIR      74  67  80 SE3       29.98S
6HR MIN TEMP:  74; 6HR MAX TEMP:  84;

COMANCHE         N/A     74  70  89 SE6       29.96S
6HR MIN TEMP:  74; 6HR MAX TEMP:  83; 6HR PCP:  0.02;

BROWNWOOD      FAIR      77  70  78 SE7       29.95F
COLEMAN        FAIR      76  70  80 CALM      29.97S
6HR MIN TEMP:  76; 6HR MAX TEMP:  85;

BRADY          CLEAR     75  70  83 E5        29.96S
$$

TXZ143>147-156>162-174-175-300700-
CENTRAL TEXAS

CITY           SKY/WX    TMP DP  RH WIND       PRES   REMARKS
WACO           FAIR      77  70  79 SE7       29.93R
6HR MIN TEMP:  77; 6HR MAX TEMP:  90;

WACO-MCGREGOR  FAIR      75  66  73 CALM      29.95R
6HR MIN TEMP:  75; 6HR MAX TEMP:  88;

HILLSBORO      FAIR      75  69  80 SE5       29.94S
6HR MIN TEMP:  74; 6HR MAX TEMP:  80;

CORSICANA      FAIR      77  72  84 SE5       29.95R
6HR MIN TEMP:  77; 6HR MAX TEMP:  88; 6HR PCP:  0.02;

MEXIA          FAIR      75  71  86 SE5       29.93R
6HR MIN TEMP:  75; 6HR MAX TEMP:  83;

CAMERON        FAIR      75  73  94 CALM      29.92S
6HR MIN TEMP:  74; 6HR MAX TEMP:  78;

TEMPLE         MOCLDY    75  66  73 E6        29.93S
6HR MIN TEMP:  75; 6HR MAX TEMP:  82;

KILLEEN        PTCLDY    77  70  78 SE7       29.94S
KILLEEN-SKYLRK FAIR      77  66  69 SE6       29.94R
6HR MIN TEMP:  77; 6HR MAX TEMP:  88;

FORT HOOD      FAIR      78  71  79 E5        29.94S
6HR MIN TEMP:  78; 6HR MAX TEMP:  88;

$$

TXZ095>097-106>112-122>126-135>138-148>153-164>167-300700-
EAST TEXAS

CITY           SKY/WX    TMP DP  RH WIND       PRES   REMARKS
PARIS          FAIR      73  64  73 SE6       29.95S
6HR MIN TEMP:  73; 6HR MAX TEMP:  84;

SULPHUR SPRNGS FAIR      78  69  73 S8        29.96S
6HR MIN TEMP:  78; 6HR MAX TEMP:  86;

MOUNT PLEASANT FAIR      73  72  94 CALM      29.97R
6HR MIN TEMP:  73; 6HR MAX TEMP:  77;

GILMER         FAIR      73  73 100 CALM      29.97S
MINEOLA        FAIR      75  72  88 CALM      29.96R
TYLER          FAIR      75  70  84 S7        29.95S
6HR MIN TEMP:  75; 6HR MAX TEMP:  84;

LONGVIEW       FAIR      77  68  73 S7        29.95R
6HR MIN TEMP:  77; 6HR MAX TEMP:  85; 6HR PCP:  0.01;

MARSHALL       FAIR      78  72  79 S5        29.98S
6HR MIN TEMP:  78; 6HR MAX TEMP:  89;

ATHENS         FAIR      73  70  88 CALM      29.94S
PALESTINE      FAIR      75  72  90 SE6       29.95S
JACKSONVILLE   FAIR      74  71  89 SE8       29.96F
HENDERSON      FAIR      74  68  82 S5        29.96F
6HR MIN TEMP:  74; 6HR MAX TEMP:  87;

NACOGDOCHES    FAIR      72  68  88 CALM      29.96F
6HR MIN TEMP:  72; 6HR MAX TEMP:  84;

LUFKIN         MOCLDY    77  72  84 E3        29.95F
6HR MIN TEMP:  76; 6HR MAX TEMP:  82;

$$

SUPPLEMENTAL OBSERVATIONS (CENTRAL)

CITY           SKY/WX    TMP DP  RH WIND       PRES   REMARKS
$$

SUPPLEMENTAL OBSERVATIONS (WEST)

CITY           SKY/WX    TMP DP  RH WIND       PRES   REMARKS
$$

SUPPLEMENTAL OBSERVATIONS (EAST)

CITY           SKY/WX    TMP DP  RH WIND       PRES   REMARKS
$$

SUPPLEMENTAL OBSERVATIONS ARE A COLLECTION OF AUTOMATED INSTRUMENTS
THAT ARE MAINTAINED BY A VARIETY OF FEDERAL AND STATE AGENCIES.
CERTAIN ELEMENTS...SUCH AS HUMIDITY VALUES AND SUSTAINED WIND
SPEEDS...MAY BE APPROXIMATED.




USA.gov is the U.S. government's official web portal to all federal, state and local government web resources and services.